Theta_e
315 308 306 304 293 290 287 291 294 295 295 298 299 297 296 295 301 300 306 315 315 315 319 321 325 326 326 326 327 327 327 328 329 329 330 330 332 337 339 340 341 343 345 346 348 348 347 349 348
311 312 306 297 288 284 285 289 293 296 298 297 297 295 293 292 299 301 303 312 313 314 315 317 324 323 323 323 323 323 324 324 325 325 325 325 325 326 329 331 334 338 341 343 347 347 348 348 348
307 310 298 293 285 284 286 290 294 298 298 298 294 295 294 295 299 299 305 309 311 310 313 318 321 321 321 321 321 321 322 322 322 322 322 322 323 323 323 323 324 327 337 339 341 343 345 346 346
303 301 294 288 285 287 289 293 295 296 296 297 293 290 293 299 300 301 307 308 307 307 310 317 319 319 319 319 319 319 320 320 320 320 320 320 321 320 320 320 320 322 326 329 335 338 339 340 343
303 293 286 284 284 287 290 293 294 294 294 293 293 289 291 299 300 303 304 306 304 304 306 310 316 316 317 317 317 317 317 317 317 317 317 317 318 318 318 318 319 321 321 322 324 327 331 334 336
296 292 284 282 284 288 290 292 294 293 292 293 292 290 293 297 299 299 302 301 302 302 304 307 313 313 313 314 314 315 315 315 315 314 313 313 313 314 314 314 315 317 318 319 320 321 322 324 329
293 288 284 283 285 287 290 291 289 289 291 291 294 290 293 295 297 297 299 299 298 300 299 299 301 309 311 310 310 311 312 311 311 311 310 309 309 310 311 311 313 315 316 317 318 318 319 321 322
294 290 285 283 285 287 289 289 288 289 289 291 293 289 290 295 298 297 297 297 297 297 297 296 297 297 297 299 311 309 309 308 308 307 307 306 305 306 307 307 309 312 313 313 314 315 317 318 318
293 286 283 283 284 286 289 287 288 289 288 288 290 293 296 299 297 296 295 295 295 297 296 296 296 296 296 298 302 303 306 305 305 303 304 301 298 298 300 304 307 308 309 310 311 312 312 312 312
287 282 284 285 284 285 287 287 287 286 286 286 289 295 298 297 296 294 293 293 294 294 295 295 295 295 296 299 296 296 298 296 297 296 296 298 296 297 299 300 303 304 305 306 308 308 308 306 303
288 286 286 287 289 288 288 287 288 286 284 287 287 293 296 295 295 295 294 294 294 294 295 296 295 295 295 295 294 294 294 294 294 293 295 295 295 294 294 294 295 295 300 298 299 299 300 300 301
285 288 288 290 290 289 287 288 287 286 287 289 289 296 296 295 295 295 295 295 295 294 295 296 295 295 294 294 293 293 293 293 292 293 295 294 292 292 292 293 293 294 295 295 296 296 298 298 299
287 287 289 289 289 288 290 286 285 287 288 288 291 295 295 295 295 295 297 297 296 294 295 294 294 294 294 293 293 292 292 292 292 292 294 293 292 291 292 292 293 293 294 295 295 296 297 297 298
288 288 288 289 289 290 287 286 287 286 288 288 292 293 294 295 295 295 296 295 295 296 295 294 294 294 294 292 292 292 291 291 291 291 292 293 293 291 292 292 292 292 293 295 295 296 296 297 297
289 285 287 287 289 287 287 283 284 287 289 288 289 291 293 294 295 295 296 295 296 296 295 294 293 294 293 292 292 291 291 293 290 291 292 292 293 292 291 291 291 292 293 294 294 295 296 296 297
285 285 280 287 288 288 285 282 286 287 287 288 288 289 290 292 294 294 295 296 296 295 294 294 296 293 292 291 291 291 291 290 290 290 291 292 293 292 291 291 291 292 293 293 293 293 294 294 294
285 278 280 283 287 286 283 282 287 287 286 286 287 287 289 290 292 292 293 294 295 295 294 293 292 292 292 291 291 290 290 290 290 289 290 291 292 293 291 290 291 292 292 292 292 293 293 292 292
276 278 280 280 284 284 282 282 287 288 287 287 287 286 287 290 292 293 293 295 295 293 293 292 292 292 291 291 289 289 289 289 289 289 289 290 290 291 290 290 290 291 291 291 292 291 292 291 291
280 278 278 282 284 281 281 282 285 288 285 285 285 284 286 288 291 292 292 292 292 291 291 292 291 291 289 288 287 286 286 287 287 288 289 290 290 291 290 290 290 290 289 289 290 290 289 289 292
281 278 276 281 283 281 279 280 284 285 284 284 285 284 286 287 289 291 291 290 291 290 290 290 291 290 290 288 287 286 286 286 286 287 288 289 290 291 290 289 288 288 288 288 289 289 289 290 291
279 277 277 277 280 279 277 276 279 282 284 285 285 285 286 288 287 288 289 289 288 288 289 290 290 290 289 289 288 287 286 285 285 285 286 288 290 290 290 289 288 288 288 287 287 288 289 287 290
277 280 280 279 272 269 276 269 276 278 280 282 283 283 284 286 287 288 288 287 288 289 289 289 290 290 290 289 287 285 284 282 283 284 286 287 289 288 288 288 287 287 287 287 287 289 290 290 288
279 281 278 277 268 268 271 266 274 278 278 281 282 283 284 285 286 287 287 289 289 289 288 288 289 289 289 288 287 285 283 283 283 284 285 286 286 287 286 286 286 285 286 286 287 289 290 290 289
282 278 276 273 265 263 264 267 273 277 277 279 281 282 284 285 285 286 287 288 287 286 286 286 288 288 288 287 286 284 282 281 282 283 283 284 284 284 285 287 288 288 288 288 289 290 289 290 290
278 269 264 266 265 266 261 267 275 279 280 281 282 282 283 284 283 284 285 285 285 285 285 285 285 286 287 285 283 282 282 283 283 283 282 282 283 283 285 287 287 287 288 288 289 289 289 289 289
276 271 267 261 264 267 262 266 276 279 281 281 283 283 282 282 283 284 285 284 284 285 284 284 284 284 284 282 281 282 283 282 282 282 282 282 283 285 287 287 287 288 288 288 289 289 289 289 289
275 266 274 263 257 261 267 272 279 279 276 278 280 280 281 282 283 284 284 283 284 283 283 283 283 283 282 281 281 282 282 282 281 282 282 283 284 287 287 287 287 287 288 288 289 289 289 289 290
274 276 267 264 261 258 264 261 274 274 274 275 278 278 280 281 282 283 283 283 283 283 282 282 282 282 281 280 281 282 282 281 281 282 282 283 284 286 286 287 287 287 288 288 289 289 289 289 290
269 267 267 268 269 263 260 268 273 273 274 274 277 278 279 279 280 281 281 282 282 282 281 281 281 280 280 281 282 281 281 281 281 281 282 284 285 286 286 286 287 287 288 288 288 288 289 289 289
275 270 273 267 264 265 266 268 274 276 269 266 273 278 276 275 279 277 280 281 281 281 280 280 280 279 279 280 281 281 281 281 280 282 283 284 284 285 286 286 286 287 287 287 287 287 287 287 287
Wind_Speed
8 7 1 5 4 5 2 6 3 2 2 4 3 7 9 5 3 5 3 12 9 8 4 7 13 14 14 16 16 16 16 16 16 16 16 15 15 14 13 13 11 12 11 9 9 6 5 5 4
4 3 4 3 5 3 5 5 6 1 6 8 7 5 7 3 2 9 6 6 9 9 5 6 12 14 15 16 16 16 16 16 16 16 16 15 14 14 14 13 13 11 10 11 11 10 9 5 5
4 1 4 5 4 6 6 3 6 5 3 3 5 7 4 4 3 7 9 8 10 7 5 6 13 14 15 15 15 15 16 16 16 16 16 15 15 14 14 13 13 13 12 10 11 13 14 14 7
2 4 5 4 5 5 5 7 4 6 3 5 4 9 3 4 7 9 10 11 11 7 5 9 13 14 14 15 15 15 16 16 16 17 17 16 15 14 15 14 14 12 13 13 13 13 13 13 15
3 3 3 1 3 3 2 4 3 2 3 3 2 4 3 3 8 14 11 11 11 6 5 6 12 13 13 14 15 15 15 16 16 17 18 17 16 15 15 14 14 14 14 14 14 14 14 14 14
3 3 3 2 4 2 1 1 5 2 2 4 7 5 3 4 13 9 10 10 8 8 5 5 9 11 12 13 14 14 15 16 16 16 17 17 16 16 16 15 15 14 14 15 15 15 15 15 14
5 4 4 3 3 3 4 1 3 4 4 2 9 5 1 1 6 8 8 9 8 7 6 4 5 7 11 12 12 13 14 15 15 16 17 16 16 16 16 16 16 16 15 15 16 16 15 15 15
4 4 1 3 4 3 2 3 2 3 1 3 4 6 6 7 7 8 7 8 7 6 6 5 5 5 5 5 8 10 11 12 12 14 14 14 14 15 15 16 16 16 16 16 16 16 16 17 18
3 5 1 0 1 2 3 2 2 1 3 4 3 6 5 12 9 8 6 4 5 4 5 5 5 4 4 4 5 7 9 11 10 9 11 8 5 6 9 13 15 16 17 17 16 17 17 17 15
5 4 4 1 1 2 4 1 0 1 1 2 3 6 12 14 13 12 9 8 6 6 5 5 5 4 4 3 4 4 4 4 4 5 6 4 5 5 7 9 14 16 15 16 17 17 17 12 5
2 4 4 1 1 2 1 1 6 4 3 6 5 8 14 11 10 12 8 9 9 6 5 6 6 4 4 3 2 2 2 2 2 5 4 3 3 3 3 3 3 4 10 5 8 8 5 8 6
3 2 1 1 2 1 1 4 5 3 4 3 5 14 14 14 13 11 9 9 7 8 7 6 6 5 4 2 2 2 3 3 3 4 6 4 3 5 4 3 4 4 4 6 4 4 7 7 7
2 2 3 2 1 1 3 4 5 7 7 2 5 10 13 11 10 7 8 7 7 8 7 7 7 6 5 3 1 1 1 2 2 3 4 4 4 4 4 4 4 4 4 4 6 5 6 6 7
1 2 3 1 0 1 2 3 4 4 3 6 7 11 10 10 12 7 7 7 9 10 8 7 7 6 5 3 2 1 1 2 2 2 3 4 2 3 4 4 4 4 4 5 6 7 6 6 6
2 2 1 1 1 2 2 2 7 6 3 5 8 8 9 11 9 12 11 8 12 11 9 9 8 7 6 4 3 1 2 1 2 3 4 4 4 4 4 4 4 4 4 6 6 7 7 7 6
2 3 3 0 2 2 2 7 3 3 6 6 8 8 8 10 10 9 7 8 8 8 11 8 7 7 6 5 3 2 2 2 3 3 3 5 5 5 4 4 4 4 4 4 5 6 7 6 7
6 2 1 2 1 3 1 7 4 1 2 7 8 8 8 8 7 7 9 10 11 12 11 9 8 8 7 5 3 3 3 2 2 2 2 4 5 5 4 4 4 5 4 4 4 6 5 7 7
3 2 2 3 2 1 4 15 14 12 9 14 13 9 8 9 12 9 8 7 9 9 8 7 6 7 6 4 2 1 1 2 1 2 3 5 4 6 4 4 5 4 4 4 4 6 5 5 7
2 1 2 4 3 3 5 11 17 16 8 11 12 8 9 7 3 7 7 6 8 7 7 7 7 7 3 1 1 1 2 2 2 3 5 6 5 5 5 4 4 4 4 5 6 6 8 7 7
3 2 4 5 1 3 6 16 17 8 5 6 9 8 7 7 5 6 7 6 6 7 7 7 7 6 5 3 3 2 2 3 3 3 4 5 5 5 5 5 5 5 4 5 5 5 6 7 7
2 2 2 4 8 2 7 8 4 4 1 4 6 3 6 10 9 6 7 6 6 7 8 7 7 7 6 6 2 1 1 1 2 2 3 4 5 5 5 5 4 5 4 5 6 4 7 7 6
1 2 2 3 6 3 5 7 8 3 2 2 2 3 6 6 4 5 7 6 7 8 6 7 7 7 6 7 4 5 3 3 3 3 3 4 5 5 5 4 4 5 4 5 5 5 6 6 7
2 3 2 3 4 4 6 5 11 3 4 6 6 5 6 7 7 8 8 7 7 5 6 6 6 6 6 6 5 4 3 3 3 3 5 5 4 5 5 5 5 5 4 6 6 6 7 6 7
3 4 6 4 4 4 4 4 9 4 4 3 4 6 7 7 7 6 6 6 5 4 2 3 3 5 5 5 5 4 5 4 3 3 4 4 4 4 5 6 7 7 7 7 7 7 9 9 9
6 7 5 7 5 6 3 1 13 7 5 6 9 9 8 7 7 6 7 7 5 5 4 4 4 5 4 4 3 3 4 4 5 5 4 5 3 3 5 7 8 7 8 9 8 8 9 9 9
2 6 6 6 3 5 3 7 10 6 6 5 8 8 7 8 8 9 9 6 7 7 6 5 5 4 4 4 4 3 3 3 3 4 4 4 4 5 8 7 8 10 10 9 9 8 8 10 9
3 1 2 7 1 4 4 9 12 3 6 4 6 7 10 9 9 10 8 7 7 7 8 7 6 5 5 5 3 4 4 4 4 6 5 4 6 7 8 8 9 10 10 10 10 8 10 10 11
5 1 5 4 1 6 6 7 9 6 8 6 7 11 10 9 9 8 7 8 6 6 6 6 6 7 5 5 4 3 3 4 5 5 6 6 5 7 9 9 10 10 10 10 10 9 10 11 10
2 2 3 3 5 6 3 9 9 7 9 12 13 11 12 12 10 8 7 7 7 5 6 7 7 7 5 5 3 3 4 4 5 4 5 5 7 8 9 10 10 10 9 9 9 10 11 12 12
4 6 5 6 7 4 2 12 5 10 6 6 11 12 7 7 9 7 7 8 7 7 7 7 7 6 6 5 4 4 3 4 4 5 6 6 7 8 9 9 9 9 9 9 10 10 10 12 13
Wind_Direction
328 313 307 39 71 67 233 257 238 166 72 346 23 110 119 43 131 192 26 125 112 95 77 78 83 80 75 72 69 66 63 61 59 57 54 52 48 45 40 33 29 19 12 3 352 332 309 311 262
318 323 41 83 100 117 257 259 228 193 145 138 95 112 46 87 101 120 100 127 112 102 80 76 85 82 75 70 67 65 63 59 56 53 48 46 44 40 37 30 22 13 5 0 360 350 344 301 280
297 182 92 123 131 176 214 237 170 146 136 187 101 52 98 137 114 135 130 128 103 93 87 90 90 83 77 73 68 64 61 57 54 50 43 39 38 37 32 26 20 13 3 355 349 353 356 356 310
19 23 31 104 204 245 209 196 200 141 127 72 127 74 42 242 147 125 130 121 103 96 89 100 91 83 78 73 69 65 60 56 52 46 41 39 38 35 27 24 15 11 13 1 348 346 347 344 345
39 59 84 156 231 260 123 184 184 133 117 67 109 143 50 2 106 125 134 122 117 110 93 94 93 80 75 71 67 65 61 56 50 43 37 34 34 27 23 20 18 12 360 354 349 345 337 337 333
51 98 77 203 243 202 10 184 154 120 118 165 77 103 176 118 130 148 134 123 124 130 124 103 95 83 72 67 60 57 52 48 45 42 35 31 25 24 19 15 6 2 358 352 347 342 337 332 328
104 90 195 201 215 169 200 31 71 157 123 62 141 86 10 253 153 138 130 124 131 134 126 107 88 85 70 71 61 57 53 45 41 38 29 29 27 20 19 15 6 2 358 354 349 345 341 334 325
102 92 83 2 214 187 341 66 119 91 168 137 141 157 179 218 146 119 112 122 131 139 130 120 91 82 85 54 70 65 61 48 46 37 30 25 22 19 16 9 3 2 359 352 348 344 343 342 335
82 61 188 350 328 278 348 96 6 285 106 66 12 143 185 141 128 113 116 105 115 136 135 124 109 90 120 99 71 56 55 44 45 31 25 23 16 6 11 3 2 1 355 353 347 345 340 339 337
87 114 204 195 255 291 331 59 343 128 54 91 51 11 128 136 152 146 156 156 157 163 167 146 129 112 88 76 61 50 50 41 41 24 21 18 24 3 8 360 359 357 355 352 348 343 342 341 332
109 172 159 196 325 317 316 359 312 127 228 216 186 161 148 154 163 163 169 169 180 176 166 167 149 129 103 78 75 49 37 34 25 22 24 24 11 2 0 348 346 345 349 345 343 339 338 331 332
90 45 27 54 7 353 306 303 291 223 233 142 178 165 161 170 176 178 179 185 163 175 176 174 152 135 117 101 68 47 28 17 12 3 7 13 2 357 352 350 345 348 339 332 326 320 321 324 319
87 148 84 150 83 135 301 265 261 262 238 339 140 155 176 180 187 193 189 191 168 175 174 181 160 157 149 133 116 53 24 12 356 3 354 9 357 345 336 335 339 335 329 328 327 320 320 314 313
148 122 140 111 162 51 343 277 12 285 228 198 162 183 185 187 192 191 199 193 183 176 175 177 175 168 156 155 155 170 342 320 347 340 329 337 337 325 322 326 327 326 327 327 321 317 311 310 304
115 110 26 331 334 332 4 261 233 250 335 171 185 198 199 204 196 201 200 180 173 178 167 179 173 167 160 164 169 180 271 328 310 307 319 319 318 312 312 313 320 315 318 317 321 320 313 308 310
53 50 40 290 355 352 358 275 264 5 169 210 208 213 211 213 204 207 197 170 172 150 169 179 171 168 168 173 183 214 248 258 280 299 309 303 299 304 299 305 300 298 306 307 312 309 310 311 315
19 172 326 308 48 329 53 275 272 345 200 242 230 229 222 215 221 193 186 172 165 169 169 177 167 175 180 180 181 210 262 274 284 293 298 295 299 298 292 292 290 294 292 290 295 309 294 307 307
239 25 313 269 14 341 275 264 277 268 255 255 258 231 222 215 206 192 168 166 159 162 157 160 173 182 179 170 167 256 285 278 258 294 291 294 290 293 292 284 287 296 292 288 285 292 288 281 286
111 135 260 279 40 339 254 274 274 286 251 252 245 234 218 208 170 153 155 135 125 136 160 178 175 196 154 151 179 226 236 271 284 295 293 306 301 296 302 295 293 292 282 280 285 295 297 303 304
66 80 287 288 118 359 297 283 286 284 268 258 245 227 176 143 132 126 134 138 154 160 178 186 200 196 193 161 188 176 184 237 251 264 290 290 292 301 300 294 274 269 272 270 267 261 299 299 303
46 157 325 257 324 258 317 294 311 289 76 16 23 72 126 153 148 143 149 157 156 183 201 209 214 210 203 193 141 124 9 328 313 284 283 275 292 289 284 285 283 278 267 277 268 270 279 289 285
321 7 32 16 38 272 26 279 302 310 231 149 98 113 145 155 146 153 164 178 196 220 223 236 237 222 207 180 172 184 195 226 230 240 243 274 280 284 291 298 292 282 280 277 265 263 265 276 282
217 25 63 99 89 43 339 70 271 305 254 226 211 204 188 178 167 176 186 196 212 226 240 252 251 215 195 180 188 191 222 227 247 268 284 283 279 277 279 284 287 284 286 277 271 271 270 267 269
66 53 31 59 93 21 263 121 284 232 222 201 200 208 198 185 182 190 204 205 211 191 220 252 232 222 202 192 188 203 235 267 280 281 283 271 270 270 265 288 301 299 286 287 284 278 272 270 264
62 50 335 350 6 227 319 28 245 266 244 208 191 199 205 198 181 186 201 215 241 264 283 279 253 252 203 191 213 246 260 272 277 281 281 294 283 283 295 303 297 285 278 278 276 274 270 267 265
75 141 156 227 258 273 356 245 253 237 265 278 204 182 183 194 198 212 224 240 248 250 256 255 251 226 200 208 244 262 267 265 277 275 276 270 261 275 293 276 276 273 274 274 270 265 262 262 260
257 47 171 100 73 47 252 292 295 265 302 320 197 178 205 207 211 227 247 247 247 242 246 237 236 225 214 224 238 253 268 282 286 289 281 270 272 285 282 282 281 277 277 273 271 267 268 264 263
153 152 39 2 308 283 283 277 242 291 252 257 238 216 218 220 224 234 256 256 247 236 236 238 226 223 224 222 227 251 291 304 296 293 286 278 282 291 290 285 279 276 273 272 272 273 269 270 267
35 320 35 128 170 202 266 259 218 224 229 221 226 218 213 214 217 226 253 267 255 232 222 227 217 215 216 214 217 252 284 294 297 289 286 288 300 294 289 289 284 281 283 279 276 276 279 273 273
170 197 157 143 263 237 188 264 223 233 231 208 246 232 237 233 228 236 257 264 251 229 221 217 213 210 208 200 193 230 268 294 294 287 295 295 294 292 293 291 292 294 288 283 280 280 278 275 278